• Processing (Info)

  • MPEC 2023-R44 : 2023 RX

    The following Minor Planet Electronic Circular may be linked-to from your own Web pages, but must not otherwise be redistributed electronically.

    A form allowing access to any MPEC is at the bottom of this page.


    Read MPEC 2023-R43 Read MPEC 2023-R45


    M.P.E.C. 2023-R44                             Issued 2023 September 8, 02:26 UT
    
         The Minor Planet Electronic Circulars contain information on unusual
             minor planets, routine data on comets and natural satellites,
             and occasional editorial announcements.  They are published
        on behalf of Division F of the International Astronomical Union by the
              Minor Planet Center, Smithsonian Astrophysical Observatory,
                              Cambridge, MA 02138, U.S.A.
    			  
                 Prepared using the Tamkin Foundation Computer Network
    
                                  MPC@CFA.HARVARD.EDU
                URL https://www.minorplanetcenter.net/    ISSN 1523-6714
    
                                     2023 RX                                 
    
    
    Observations:
         K23R00X*1C2023 09 07.37682523 53 01.070-17 02 08.60               VER044G96
         K23R00X 1C2023 09 07.38196023 53 13.970-17 02 04.60         19.05GVER044G96
         K23R00X 1C2023 09 07.38708523 53 26.730-17 02 00.60               VER044G96
         K23R00X 1C2023 09 07.39223023 53 39.790-17 01 56.00         19.05GVER044G96
         K23R00X  C2023 09 07.44995823 56 32.933-16 59 59.62         19.05GVER044F52
         K23R00X 1C2023 09 07.46110723 56 38.756-17 00 36.90         19.04GVER044G96
         K23R00X 1C2023 09 07.46131323 56 39.322-17 00 36.79         18.90GVER044G96
         K23R00X 1C2023 09 07.46151923 56 39.865-17 00 36.32         18.90GVER044G96
         K23R00X 1C2023 09 07.46172623 56 40.434-17 00 36.18         19.10GVER044G96
         K23R00X  C2023 09 07.46219323 57 04.991-16 59 50.23         19.04GVER044F52
         K23R00X  C2023 09 07.47438623 57 37.097-16 59 39.53         19.14GVER044F52
         K23R00X  C2023 09 07.48665323 58 09.719-16 59 27.49         18.93GVER044F52
         K23R00X KC2023 09 07.91095500 22 30.15 -16 48 43.8          18.6 GVER044L01
         K23R00X KC2023 09 07.91209200 22 34.42 -16 48 40.6          18.4 GVER044L01
         K23R00X KC2023 09 07.91322700 22 38.75 -16 48 38.1          18.5 GVER044L01
         K23R00X KC2023 09 07.91436200 22 43.07 -16 48 35.0          18.4 GVER044L01
         K23R00X IC2023 09 07.91549700 22 47.48 -16 48 32.4          18.7 GVER044L01
         K23R00X KB2023 09 07.98235100 27 17.30 -16 44 52.8                XER044958
         K23R00X KB2023 09 07.98752100 27 38.20 -16 44 36.2                XER044958
         K23R00X KC2023 09 07.98799000 27 31.83 -16 44 59.3          19.0 GXER044595
         K23R00X KB2023 09 07.99267800 27 59.03 -16 44 21.1          18.6 GXER044958
         K23R00X KC2023 09 08.01147200 29 07.22 -16 43 35.2          19.3 GXER044595
         K23R00X 1C2023 09 08.02614 00 30 08.78 -16 43 03.9          18.9 VXER044033
         K23R00X 1C2023 09 08.02643 00 30 09.96 -16 43 02.9          19.0 VXER044033
         K23R00X 1C2023 09 08.02671 00 30 11.17 -16 43 01.5          18.8 VXER044033
         K23R00X KB2023 09 08.07700000 33 50.65 -16 39 00.2          18.4 GVER044I93
         K23R00X KB2023 09 08.08031100 34 05.02 -16 38 44.4          20.1 GVER044I93
         K23R00X KB2023 09 08.08356300 34 19.05 -16 38 31.0          20.0 GVER044I93
    
    Observer details:
    033 Karl Schwarzschild Observatory, Tautenburg.  Observers S. Melnikov, C.
        Hoegner, F. Ludwig, M. Hartmann, B. Stecklum.  Measurer B. Stecklum.
        1.34-m f/3 Schmidt + CCD.
    595 Farra d'Isonzo.  Observer E. Pettarin.  0.61-m f/4.5 reflector + CCD.
    958 Observatoire de Dax.  Observers P. Dupouy, J. Laborde.  Measurer P.
        Dupouy.  0.30-m f/5 Schmidt-Cassegrain + CMO.
    F52 Pan-STARRS 2, Haleakala.  Observers J. Bulger, K. Chambers, T. Dukes, T.
        Lowe, P. Minguez, A. Schultz, I. Smith.  Measurers S. Chastel, J.
        Fairlamb, M. Huber, Y. Ramanjooloo, R. Wainscoat, R. Weryk.  1.8-m
        Ritchey-Chretien + CCD.
    G96 Mt. Lemmon Survey.  Observer A. R. Gibbs.  Measurers E. J. Christensen, D.
        Fay, J. B. Fazekas, D. C. Fuls, A. R. Gibbs, A. D. Grauer, H. Groeller, J.
        K. Hogan, R. A. Kowalski, S. M. Larson, G. J. Leonard, D. Rankin, R. L.
        Seaman, A. Serrano, F. C. Shelly, K. W. Wierzchos.  1.5-m reflector + 10K
        CCD.
    I93 St Pardon de Conques.  Observer F. Losse.  0.40-m f/3.7 reflector + CMO.
    L01 Visnjan Observatory, Tican.  Observer K. Korlevic.  1.0-m f/2.9 reflector
        + CCD.
    
    Orbital elements:
    2023 RX                                                  Earth MOID = 0.0035 AU
    Epoch 2023 Sept. 13.0 TT = JDT 2460200.5                Veres                   
    M 344.03214              (2000.0)            P               Q                  
    n   0.42371833     Peri.   42.73780     +0.73761994     -0.67521613             
    a   1.7555689      Node   359.73310     +0.61511817     +0.67201302             
    e   0.5097824      Incl.    0.91293     +0.27847165     +0.30410800             
    P   2.33           H   27.32          G   0.15           U   8                  
    Residuals in seconds of arc
    230907 G96  1.4-  0.1+    230907 F52  0.1+  0.2+    230907 958  0.7-  0.8-
    230907 G96  0.0   0.0     230907 F52  0.0   0.1+    230908 595  0.9-  0.4-
    230907 G96  1.1-  0.3-    230907 L01  0.9+  0.2-    230908 033  0.5+  0.4-
    230907 G96  0.7+  0.1-    230907 L01  0.2-  0.1+    230908 033  0.1+  0.5-
    230907 F52  0.1-  0.3+    230907 L01  0.4-  0.3-    230908 033  0.7+  0.2-
    230907 G96  0.2-  0.3+    230907 L01  0.8-  0.1-    230908 I93  0.0   0.0
    230907 G96  0.0   0.1+    230907 L01  0.1+  0.4-    230908 I93  0.9+  1.0+
    230907 G96  0.2-  0.3+    230907 958  1.5-  0.7+    230908 I93  0.1+  0.3-
    230907 G96  0.0   0.1+    230907 958  0.5-  0.8+
    230907 F52  0.8+  0.2+    230907 595  1.5-  0.6-
    
    Ephemeris:
    2023 RX                  a,e,i = 1.76, 0.51, 1                   q = 0.8606
    Date    TT    R. A. (2000) Decl.     Delta      r    Elong.  Phase     V
    2023 08 09    22 05 21.8 -15 08 47   0.2278  1.2373   167.4    10.3    25.2
    ...
    2023 08 24    22 13 32.0 -15 38 32   0.1134  1.1244   175.6     3.9    23.2
    ...
    2023 09 01    22 28 44.6 -16 10 17   0.05827 1.0671   172.0     7.5    21.8
    ...
    2023 09 07    23 38 16.2 -16 57 42   0.01914 1.0265   165.9    13.8    19.6
    2023 09 08    00 28 13.2 -16 34 39   0.01337 1.0200   156.8    22.9    19.1
    2023 09 09    02 16 22.2 -13 12 54   0.0089341.0136   132.9    46.7    18.9
    ...
    2023 09 15    09 06 47.7 +13 31 24   0.03670 0.9767    36.6   142.1    27.2
    ...
    2023 09 23    09 39 17.7 +14 33 05   0.09007 0.9334    37.1   139.6    28.7
    ...
    2023 10 08    10 01 07.1 +13 53 41   0.1956  0.8768    46.7   124.0    28.7
    
    M. P. C. Staff               (C) Copyright 2023 MPC           M.P.E.C. 2023-R44
    


    Read MPEC 2023-R43 Read MPEC 2023-R45


    MPEC number:

    Enter an MPEC number in one of the following forms:

    • 1997-B01 (the full form)
    • J97B01 (the packed version of the full form)
    • B01 (the abbreviated form)